CW3094 Weather Reports


time (UTC)temp
F
wind
direction
speed
knots
gust
knots
rain 1hr
in
rain 24hr
in
rain mn
in
humidity
%
barometer
mb
20260504150902 61 272 7.8 14.8 0.00 0.00 0.00 40 1010.4
20260504150402 62 261 7.8 17.4 0.00 0.00 0.00 41 1010.5
20260504140903 60 270 6.1 7.8 0.00 0.00 0.00 44 1010.9
20260504130405 56 299 6.1 13.0 0.00 0.00 0.00 48 1011.4
20260504110403 44 269 4.3 5.2 0.00 0.00 0.00 69 1011.9
20260504100402 41 262 4.3 6.1 0.00 0.00 0.00 75 1011.4
20260504081903 42 268 2.6 5.2 0.00 0.00 0.00 70 1010.9
20260504081403 42 273 2.6 6.1 0.00 0.00 0.00 70 1010.9
20260504080904 42 277 2.6 4.3 0.00 0.00 0.00 71 1010.9
20260504080403 42 275 2.6 4.3 0.00 0.00 0.00 70 1010.9
20260504070403 42 271 2.6 4.3 0.00 0.00 0.00 71 1010.8
20260504050404 42 287 1.7 1.7 0.00 0.00 0.00 68 1010.9
20260504045404 42 266 0.9 1.7 0.00 0.00 0.00 68 1010.9
20260504044903 42 265 0.9 1.7 0.00 0.00 0.00 67 1010.9
20260504044403 42 279 0.9 0.9 0.00 0.00 0.00 66 1010.9
20260504043903 42 291 0.9 1.7 0.00 0.00 0.00 66 1010.9
20260504042403 42 293 1.7 1.7 0.00 0.00 0.00 65 1010.8
20260504041903 42 295 0.9 1.7 0.00 0.00 0.00 66 1010.8
20260504041403 42 292 0.9 1.7 0.00 0.00 0.00 66 1010.9
20260504040903 42 286 0.9 1.7 0.00 0.00 0.00 67 1010.8
20260504040403 42 258 0.9 1.7 0.00 0.00 0.00 66 1010.7
20260504034406 43 310 1.7 4.3 0.00 0.00 0.00 64 1010.5
20260504033904 43 309 1.7 5.2 0.00 0.00 0.00 62 1010.5
20260504033404 43 306 1.7 2.6 0.00 0.00 0.00 60 1010.5
20260504032904 43 296 1.7 2.6 0.00 0.00 0.00 60 1010.5
20260504032403 43 296 1.7 1.7 0.00 0.00 0.00 59 1010.4
20260504031904 43 293 1.7 1.7 0.00 0.00 0.00 59 1010.4
20260504031403 43 288 1.7 1.7 0.00 0.00 0.00 58 1010.4
20260504030903 43 290 1.7 1.7 0.00 0.00 0.00 60 1010.3
20260504030404 43 294 1.7 2.6 0.00 0.00 0.00 57 1010.3
20260504025903 43 281 1.7 4.3 0.00 0.00 0.00 57 1010.2
20260504024904 43 299 0.9 1.7 0.00 0.00 0.00 58 1010.3
20260504024403 43 271 1.7 1.7 0.00 0.00 0.00 59 1010.4
20260504023903 43 287 1.7 1.7 0.00 0.00 0.00 57 1010.5
20260504023403 43 288 1.7 1.7 0.00 0.00 0.00 58 1010.4
20260504022903 43 286 1.7 2.6 0.00 0.00 0.00 58 1010.4
20260504022403 43 285 1.7 1.7 0.00 0.00 0.00 58 1010.4
20260504021403 43 274 1.7 1.7 0.00 0.00 0.00 58 1010.3
20260504020904 43 271 0.9 1.7 0.00 0.00 0.00 59 1010.2
20260504020403 43 262 0.9 1.7 0.00 0.00 0.00 59 1010.3
20260504015904 43 279 0.9 1.7 0.00 0.00 0.00 59 1010.3
20260504014904 44 288 0.9 1.7 0.00 0.00 0.00 57 1010.2
20260504014404 44 276 0.9 1.7 0.00 0.00 0.00 57 1010.2
20260504013903 44 269 1.7 1.7 0.00 0.00 0.00 57 1010.1
20260504013403 44 271 0.9 0.9 0.00 0.00 0.00 57 1010.0
20260504012903 45 274 0.9 1.7 0.00 0.00 0.00 55 1010.0
20260504011903 45 283 0.9 1.7 0.00 0.00 0.00 54 1009.9
20260504011403 46 279 0.9 1.7 0.00 0.00 0.00 53 1009.9
20260504010903 46 287 0.9 1.7 0.00 0.00 0.00 52 1009.8
20260504010403 46 289 0.9 1.7 0.00 0.00 0.00 52 1009.7
20260504005903 46 299 0.9 2.6 0.00 0.00 0.00 53 1009.6
20260504005403 46 277 1.7 2.6 0.00 0.00 0.00 49 1009.6
20260504004903 46 290 1.7 2.6 0.00 0.00 0.00 50 1009.6
20260504003904 46 265 1.7 2.6 0.00 0.00 0.00 52 1009.3
20260504002903 46 277 1.7 1.7 0.00 0.00 0.00 51 1009.2
20260504002404 46 296 0.9 0.9 0.00 0.00 0.00 50 1009.1
20260504001903 46 273 1.7 1.7 0.00 0.00 0.00 52 1009.0
20260504001404 47 279 2.6 4.3 0.00 0.00 0.00 50 1009.0
20260504000904 47 289 1.7 4.3 0.00 0.00 0.00 50 1008.9
20260504000404 47 281 2.6 4.3 0.00 0.00 0.00 49 1008.8
20260503235404 48 303 1.7 2.6 0.00 0.00 0.00 46 1008.7
20260503234903 49 289 1.7 4.3 0.00 0.00 0.00 46 1008.6
20260503234404 49 290 1.7 5.2 0.00 0.00 0.00 45 1008.6
20260503233903 49 315 1.7 6.1 0.00 0.00 0.00 44 1008.5
20260503233403 49 300 3.5 7.0 0.00 0.00 0.00 44 1008.5
20260503232903 50 315 4.3 7.8 0.00 0.00 0.00 43 1008.4
20260503231403 51 279 4.3 6.1 0.00 0.00 0.00 43 1008.4
20260503230904 51 287 4.3 7.8 0.00 0.00 0.00 43 1008.3
20260503230404 51 295 4.3 7.8 0.00 0.00 0.00 42 1008.3
20260503225404 51 284 3.5 6.1 0.00 0.00 0.00 44 1008.4
20260503224904 51 298 4.3 7.8 0.00 0.00 0.00 44 1008.3
20260503223904 52 296 2.6 7.8 0.00 0.00 0.00 42 1008.3
20260503222904 52 298 2.6 10.4 0.00 0.00 0.00 43 1008.3
20260503221903 52 295 4.3 7.0 0.00 0.00 0.00 43 1008.3
20260503221403 52 304 3.5 8.7 0.00 0.00 0.00 42 1008.3
20260503220404 53 313 5.2 8.7 0.00 0.00 0.00 42 1008.4
20260503215906 53 305 4.3 8.7 0.00 0.00 0.00 43 1008.4
20260503215403 53 294 4.3 8.7 0.00 0.00 0.00 42 1008.3
20260503214904 52 257 2.6 10.4 0.00 0.00 0.00 44 1008.4
20260503214404 52 294 7.0 10.4 0.00 0.00 0.00 44 1008.4
20260503213403 51 304 6.1 12.2 0.00 0.00 0.00 42 1008.2
20260503212403 52 301 7.0 13.0 0.00 0.00 0.00 45 1008.2
20260503211904 51 284 3.5 7.8 0.00 0.00 0.00 45 1008.3
20260503211404 51 287 6.1 10.4 0.00 0.00 0.00 45 1008.3
20260503210904 51 302 7.0 13.0 0.00 0.00 0.00 44 1008.4
20260503210404 51 350 3.5 13.0 0.00 0.00 0.00 45 1008.4
20260503205403 51 302 4.3 11.3 0.00 0.00 0.00 45 1008.3
20260503204904 52 300 3.5 8.7 0.00 0.00 0.00 45 1008.3
20260503204404 52 301 5.2 8.7 0.00 0.00 0.00 43 1008.3
20260503203904 52 305 5.2 14.8 0.00 0.00 0.00 44 1008.2
20260503202904 52 281 6.1 13.9 0.00 0.00 0.00 43 1008.3
20260503202404 52 288 7.8 14.8 0.00 0.00 0.00 44 1008.4
20260503201903 51 288 5.2 12.2 0.00 0.00 0.00 48 1008.4
20260503201404 51 282 9.6 18.2 0.00 0.00 0.00 44 1008.4
20260503200903 50 298 9.6 20.0 0.00 0.00 0.00 45 1008.4
20260503195903 50 314 10.4 14.8 0.00 0.00 0.00 43 1008.5
20260503195404 50 303 7.8 18.2 0.00 0.00 0.00 45 1008.5
20260503194904 50 295 8.7 20.0 0.00 0.00 0.00 44 1008.5
20260503194403 50 288 7.8 12.2 0.00 0.00 0.00 46 1008.5
20260503193404 50 286 7.8 17.4 0.00 0.00 0.00 45 1008.4
20260503191404 50 306 8.7 20.9 0.00 0.00 0.00 46 1008.5
20260503190904 50 291 6.1 18.2 0.00 0.00 0.00 48 1008.4
20260503190403 50 309 7.0 13.9 0.00 0.00 0.00 45 1008.5
20260503185903 50 303 7.0 21.7 0.00 0.00 0.00 46 1008.6
20260503184904 50 328 7.0 14.8 0.00 0.00 0.00 45 1008.5
20260503183904 50 278 9.6 18.2 0.00 0.00 0.00 47 1008.6
20260503182904 50 292 9.6 18.2 0.00 0.00 0.00 45 1008.7
20260503181904 50 309 6.1 11.3 0.00 0.00 0.00 46 1008.6
20260503181404 50 289 5.2 13.0 0.00 0.00 0.00 46 1008.6
20260503180903 50 308 6.1 13.9 0.00 0.00 0.00 45 1008.5
20260503180403 50 316 10.4 20.9 0.00 0.00 0.00 44 1008.5
20260503174404 50 301 10.4 15.6 0.00 0.00 0.00 44 1008.4
20260503173904 50 289 6.1 13.0 0.00 0.00 0.00 45 1008.4
20260503173404 50 320 8.7 15.6 0.00 0.00 0.00 46 1008.4
20260503172909 51 6 4.3 11.3 0.00 0.00 0.00 46 1008.4
20260503172403 51 301 5.2 11.3 0.00 0.00 0.00 46 1008.4
20260503171904 50 310 7.0 15.6 0.00 0.00 0.00 47 1008.4
20260503171404 50 304 5.2 7.8 0.00 0.00 0.00 48 1008.5
20260503170904 48 280 2.6 7.8 0.00 0.00 0.00 53 1008.5
20260503170404 47 336 7.8 15.6 0.00 0.00 0.00 50 1008.6